TimeEDT,TemperatureF,Dew PointF,Humidity,Sea Level PressureIn,VisibilityMPH,Wind Direction,Wind SpeedMPH,Gust SpeedMPH,PrecipitationIn,Events,Conditions,WindDirDegrees,DateUTC
12:53 AM,37.0,30.0,76,29.97,10.0,West,8.1,-,N/A,,Overcast,260,2013-10-24 04:53:00
1:53 AM,37.0,30.0,76,29.97,10.0,West,12.7,-,N/A,,Overcast,260,2013-10-24 05:53:00
2:53 AM,36.0,30.0,79,29.97,10.0,West,9.2,-,N/A,,Mostly Cloudy,260,2013-10-24 06:53:00
3:53 AM,34.0,30.0,85,29.98,10.0,WSW,8.1,-,N/A,,Scattered Clouds,250,2013-10-24 07:53:00
4:53 AM,35.1,30.0,82,29.98,10.0,WSW,9.2,-,N/A,,Overcast,250,2013-10-24 08:53:00
5:53 AM,35.1,30.0,82,29.99,10.0,WSW,9.2,-,N/A,,Overcast,250,2013-10-24 09:53:00
6:53 AM,36.0,30.0,79,30.01,10.0,WSW,11.5,-,N/A,,Overcast,250,2013-10-24 10:53:00
7:53 AM,35.1,30.0,82,30.01,10.0,West,11.5,-,N/A,,Overcast,260,2013-10-24 11:53:00
8:53 AM,35.1,30.0,82,30.03,10.0,West,12.7,-,N/A,,Overcast,260,2013-10-24 12:53:00
9:53 AM,37.9,30.9,76,30.05,10.0,West,13.8,19.6,N/A,,Mostly Cloudy,260,2013-10-24 13:53:00
10:53 AM,41.0,30.9,67,30.06,10.0,West,15.0,-,N/A,,Overcast,270,2013-10-24 14:53:00
11:53 AM,41.0,30.0,65,30.06,10.0,West,13.8,-,N/A,,Overcast,270,2013-10-24 15:53:00
12:39 PM,42.8,30.2,61,30.06,10.0,West,12.7,-,N/A,,Overcast,270,2013-10-24 16:39:00
12:53 PM,43.0,30.9,62,30.06,10.0,West,13.8,19.6,N/A,,Overcast,270,2013-10-24 16:53:00
1:16 PM,42.8,30.2,61,30.06,10.0,West,16.1,23.0,N/A,,Overcast,280,2013-10-24 17:16:00
1:53 PM,43.0,30.0,60,30.06,10.0,West,16.1,21.9,N/A,,Overcast,280,2013-10-24 17:53:00
2:53 PM,44.1,30.0,58,30.06,10.0,WNW,17.3,21.9,N/A,,Overcast,290,2013-10-24 18:53:00
3:53 PM,41.0,32.0,70,30.08,10.0,WSW,17.3,23.0,N/A,,Mostly Cloudy,250,2013-10-24 19:53:00
4:53 PM,42.1,33.1,70,30.09,10.0,SW,10.4,-,0.00,,Overcast,230,2013-10-24 20:53:00
5:53 PM,39.9,33.1,77,30.11,10.0,WSW,10.4,-,0.00,,Mostly Cloudy,240,2013-10-24 21:53:00
6:53 PM,39.9,33.1,77,30.14,10.0,West,6.9,-,0.00,,Overcast,260,2013-10-24 22:53:00
7:53 PM,37.0,30.9,79,30.16,10.0,WSW,9.2,-,N/A,,Scattered Clouds,250,2013-10-24 23:53:00
8:53 PM,37.0,30.9,79,30.17,10.0,West,8.1,-,N/A,,Clear,280,2013-10-25 00:53:00
9:53 PM,36.0,30.9,82,30.19,10.0,West,11.5,-,N/A,,Clear,280,2013-10-25 01:53:00
10:53 PM,32.0,28.9,88,30.20,10.0,West,6.9,-,N/A,,Partly Cloudy,260,2013-10-25 02:53:00
11:53 PM,32.0,30.0,92,30.22,10.0,West,6.9,-,N/A,,Clear,280,2013-10-25 03:53:00